Weather History for Santander Airport, Spain

Change the Weather History Date:

Thursday, November 29, 2012

  Actual Average Record
Temperature  
Mean Temperature 48 °F -  
Max Temperature 51 °F 53 °F 62 °F (2000)
Min Temperature 44 °F 43 °F 30 °F (2010)
Degree Days  
Heating Degree Days 18    
Moisture  
Dew Point 41 °F    
Average Humidity 77    
Maximum Humidity 93    
Minimum Humidity 58    
Precipitation  
Precipitation 0.00 in - - ()
Sea Level Pressure  
Sea Level Pressure 29.98 in    
Wind  
Wind Speed 12 mph ()    
Max Wind Speed 22 mph    
Max Gust Speed 37 mph    
Visibility 5.8 miles    
Events Rain , Hail    
Averages and records for this station are not official NWS values.
T = Trace of Precipitation, MM = Missing Value Source: Averaged Metar Reports

Daily Weather History Graph

Daily Weather History Graph

Search for Another Location

Airport:

Trip Planner

Search our weather history database for the weather conditions in past years. The results will help you decide how hot, cold, wet, or windy it might be!

Date:

Astronomy

Nov. 29, 2012 Rise Set
Actual Time 8:26 AM CET 5:41 PM CET
Civil Twilight 7:54 AM CET 6:12 PM CET
Nautical Twilight 7:18 AM CET 6:48 PM CET
Astronomical Twilight 6:44 AM CET 7:22 PM CET
Moon 6:31 PM CET (11/29) 9:01 AM CET (11/29)
Length of Visible Light 10h 18m
Length of Day
9h 14m
Full, 99% of the Moon is Illuminated
Nov 29
Full
Dec 6
Last Quarter
Dec 13
New
Dec 20
First Quarter
Dec 28
Full

Hourly Weather History & Observations

Time (CET) Temp. Windchill Dew Point Humidity Pressure Visibility Wind Dir Wind Speed Gust Speed Precip Events Conditions
5:30 AM 48.2 °F - 41.0 °F 76% 29.98 in 6.2 mi North 16.1 mph 27.6 mph N/A Rain Light Rain
6:00 AM 48.2 °F - 41.0 °F 76% 29.98 in 6.2 mi North 15.0 mph - N/A   Mostly Cloudy
6:30 AM 48.2 °F - 39.2 °F 71% 30.01 in 6.2 mi North 15.0 mph - N/A   Mostly Cloudy
7:00 AM 50.0 °F - 41.0 °F 71% 30.01 in 6.2 mi NNW 10.4 mph - N/A   Mostly Cloudy
7:30 AM 48.2 °F - 41.0 °F 76% 30.01 in 4.3 mi NNW 18.4 mph 36.8 mph N/A Rain Small Hail Showers
7:31 AM 46.4 °F 38.5 °F 41.0 °F 81% 30.01 in 2.2 mi NNW 21.9 mph 35.7 mph N/A Rain Light Small Hail Showers
7:39 AM 44.6 °F 36.6 °F 39.2 °F 81% 30.01 in 3.7 mi NNW 19.6 mph - N/A Rain Light Rain Showers
8:00 AM 44.6 °F 40.2 °F 41.0 °F 87% 30.01 in 5.0 mi NNE 8.1 mph 19.6 mph N/A Rain Rain
8:30 AM 48.2 °F - 41.0 °F 76% 30.01 in 6.2 mi North 15.0 mph - N/A   Mostly Cloudy
9:00 AM 48.2 °F - 39.2 °F 71% 30.01 in 6.2 mi North 20.7 mph - N/A Rain Light Rain
9:30 AM 48.2 °F - 39.2 °F 71% 30.01 in 6.2 mi North 5.8 mph - N/A   Mostly Cloudy
10:00 AM 48.2 °F - 37.4 °F 66% 30.04 in 6.2 mi North 17.3 mph 32.2 mph N/A Rain Rain
10:20 AM 46.4 °F 41.1 °F 39.2 °F 76% 30.04 in 5.0 mi North 11.5 mph - N/A Rain , Hail Rain Showers
10:25 AM 46.4 °F 41.9 °F 39.2 °F 76% 30.04 in 6.2 mi North 9.2 mph - N/A Rain Light Rain Showers
10:30 AM 46.4 °F 42.4 °F 39.2 °F 76% 30.04 in 6.2 mi North 8.1 mph - N/A Rain Rain Showers
11:00 AM 50.0 °F - 39.2 °F 66% 30.04 in 6.2 mi NNW 10.4 mph - N/A   Mostly Cloudy
11:30 AM 51.8 °F - 37.4 °F 58% 30.04 in 6.2 mi NNW 11.5 mph - N/A   Mostly Cloudy
12:00 PM 51.8 °F - 39.2 °F 62% 30.04 in 6.2 mi NNW 12.7 mph - N/A   Mostly Cloudy
12:30 PM 50.0 °F - 41.0 °F 71% 30.01 in 6.2 mi North 16.1 mph 28.8 mph N/A   Mostly Cloudy
1:00 PM 50.0 °F - 39.2 °F 66% 30.01 in 6.2 mi North 11.5 mph - N/A   Mostly Cloudy
1:30 PM 51.8 °F - 39.2 °F 62% 30.01 in 6.2 mi NW 10.4 mph - N/A   Scattered Clouds
2:00 PM 51.8 °F - 39.2 °F 62% 30.01 in 6.2 mi WNW 12.7 mph - N/A   Scattered Clouds
2:30 PM 48.2 °F - 41.0 °F 76% 29.98 in 6.2 mi North 15.0 mph 27.6 mph N/A   Scattered Clouds
3:00 PM 50.0 °F - 41.0 °F 71% 29.98 in 6.2 mi North 8.1 mph - N/A   Scattered Clouds
3:30 PM 50.0 °F - 39.2 °F 66% 29.98 in 6.2 mi NNW 10.4 mph 25.3 mph N/A   Scattered Clouds
4:00 PM 50.0 °F - 37.4 °F 62% 29.95 in 6.2 mi NNW 6.9 mph - N/A   Scattered Clouds
4:30 PM 50.0 °F - 39.2 °F 66% 29.95 in 6.2 mi NW 10.4 mph - N/A   Scattered Clouds
5:00 PM 50.0 °F - 39.2 °F 66% 29.95 in 6.2 mi WNW 9.2 mph - N/A   Scattered Clouds
5:30 PM 48.2 °F - 42.8 °F 82% 29.95 in 6.2 mi WSW 5.8 mph - N/A   Scattered Clouds
6:00 PM 46.4 °F 42.4 °F 41.0 °F 81% 29.95 in 6.2 mi SSW 8.1 mph - N/A   Mostly Cloudy
6:30 PM 44.6 °F 39.2 °F 42.8 °F 93% 29.95 in 6.2 mi WSW 10.4 mph - N/A   Mostly Cloudy
7:00 PM 44.6 °F 40.7 °F 42.8 °F 93% 29.92 in 6.2 mi SW 6.9 mph - N/A Rain Light Rain Showers
7:30 PM 44.6 °F 39.7 °F 42.8 °F 93% 29.92 in 4.3 mi WSW 9.2 mph - N/A Rain Light Rain Showers
8:00 PM 44.6 °F 40.7 °F 42.8 °F 93% 29.92 in 6.2 mi SSW 6.9 mph - N/A Rain Light Rain Showers
8:30 PM 44.6 °F 39.2 °F 42.8 °F 93% 29.92 in 6.2 mi SW 10.4 mph - N/A   Mostly Cloudy
9:00 PM 44.6 °F 38.8 °F 42.8 °F 93% 29.92 in 6.2 mi SW 11.5 mph - N/A Rain Light Rain Showers
9:30 PM 44.6 °F 38.8 °F 42.8 °F 93% 29.89 in 6.2 mi West 11.5 mph - N/A Rain Light Rain Showers
10:00 PM 46.4 °F 40.7 °F 39.2 °F 76% 29.89 in 6.2 mi WNW 12.7 mph - N/A Rain Light Rain
10:30 PM 44.6 °F 39.2 °F 42.8 °F 93% 29.89 in 6.2 mi SW 10.4 mph - N/A   Mostly Cloudy
11:00 PM 44.6 °F - 42.8 °F 93% 29.89 in 1.9 mi Variable 2.3 mph - N/A Rain Heavy Rain Showers
11:30 PM 44.6 °F 40.7 °F 42.8 °F 93% 29.86 in 6.2 mi SSW 6.9 mph - N/A   Mostly Cloudy